Stations météo

réclame
Mon MeteoGroup
A12-CPP, Pays-Bas (6205): Température de l'air & dewpoint: 18.07.2019 06:00:00 - 24.07.2019 06:00:00 (CEST)A12-CPP, Pays-Bas (6205): Vitesse du vent & gusts: 18.07.2019 06:00:00 - 24.07.2019 06:00:00 (CEST)A12-CPP, Pays-Bas (6205): Direction du vent: 18.07.2019 06:00:00 - 24.07.2019 06:00:00 (CEST)A12-CPP, Pays-Bas (6205): reduced air pressure: 18.07.2019 06:00:00 - 24.07.2019 06:00:00 (CEST)A12-CPP, Pays-Bas (6205): visibility: 18.07.2019 06:00:00 - 24.07.2019 06:00:00 (CEST)
Date & Time tt [°C] td [°C] ff [km/h] ff [knt] fx [km/h] fx [knt] dd ppp [hPa] vv [km]
24.07.2019 06:00:00 16,9 16,9 35 19 36 19 SE 1015,2 3,6
24.07.2019 05:00:00 17,5 17,5 34 18 32 18 SE 1015,7 10
24.07.2019 04:00:00 17,8 17,3 37 20 36 19 SE 1015,9 10
24.07.2019 03:00:00 17,8 17,3 31 17 32 18 SE 1016,8 10
24.07.2019 02:00:00 18,4 17,2 34 18 29 16 SSE 1017,4 10
24.07.2019 01:00:00 18,4 17,1 29 16 29 16 SSE 1017,9 10
24.07.2019 00:00:00 18,9 16,3 26 14 25 14 SSE 1018,2 10
23.07.2019 23:00:00 18,0 17,6 22 12 22 12 SSE 1018,7 10
23.07.2019 22:00:00 18,0 17,8 21 11 18 10 SSE 1018,7 10
23.07.2019 21:00:00 18,5 17,2 13 7 14 8 SSE 1018,8 10
23.07.2019 20:00:00 18,2 17,3 18 10 18 10 S 1019,3 10
23.07.2019 19:00:00 18,2 17,3 15 8 18 10 SSE 1019,5 10
23.07.2019 18:00:00 17,9 17,2 16 9 18 10 SSE 1019,5 10
23.07.2019 17:00:00 18,0 17,0 16 9 18 10 SSE 1019,7 10
23.07.2019 16:00:00 18,1 16,7 18 10 22 12 SSE 1020,0 10
23.07.2019 15:00:00 19,0 16,3 26 14 25 14 SSE 1020,3 10
23.07.2019 14:00:00 19,3 15,3 18 10 18 10 SSE 1020,3 10
23.07.2019 13:00:00 19,1 15,1 15 8 14 8 S 1020,4 10
23.07.2019 12:00:00 18,6 15,0 15 8 18 10 SSW 1020,4 10
23.07.2019 11:00:00 18,2 15,3 13 7 18 10 SSW 1020,4 10
23.07.2019 10:00:00 17,8 15,2 13 7 18 10 SW 1020,2 10
23.07.2019 09:00:00 18,2 15,2 24 13 22 12 W 1019,9 10
23.07.2019 08:00:00 18,6 15,3 24 13 22 12 SW 1019,8 10
23.07.2019 07:00:00 18,5 15,2 21 11 25 14 SW 1019,5 10
23.07.2019 06:00:00 18,1 15,4 26 14 25 14 WSW 1019,5 10
23.07.2019 05:00:00 17,5 15,4 26 14 25 14 SW 1019,4 10
23.07.2019 04:00:00 17,3 15,6 24 13 25 14 SW 1019,5 10
23.07.2019 03:00:00 17,7 15,6 26 14 25 14 SW 1019,3 10
23.07.2019 02:00:00 18,1 15,5 29 16 29 16 SW 1019,0 10
23.07.2019 01:00:00 17,8 15,7 28 15 32 18 WSW 1019,1 10
23.07.2019 00:00:00 18,4 15,6 29 16 32 18 WSW 1018,4 10
22.07.2019 23:00:00 18,0 15,6 31 17 32 18 SW 1018,3 10
22.07.2019 22:00:00 17,7 15,7 26 14 32 18 SW 1018,0 10
22.07.2019 21:00:00 18,4 15,9 31 17 32 18 SW 1017,6 10
22.07.2019 20:00:00 18,3 16,1 29 16 32 18 WSW 1017,4 10
22.07.2019 19:00:00 18,2 16,0 31 17 32 18 SW 1016,9 10
22.07.2019 18:00:00 17,6 16,1 29 16 36 19 SW 1016,5 10
22.07.2019 17:00:00 17,7 16,1 37 20 40 21 WSW 1016,4 10
22.07.2019 16:00:00 17,6 16,1 42 23 40 21 WSW 1016,0 10
22.07.2019 15:00:00 17,4 16,2 41 22 40 21 WSW 1015,6 10
22.07.2019 14:00:00 17,2 16,1 42 23 40 21 WSW 1015,5 10
22.07.2019 13:00:00 17,1 16,0 46 25 47 25 SW 1015,2 10
22.07.2019 12:00:00 17,1 15,9 48 26 47 25 SW 1014,5 10
22.07.2019 11:00:00 17,0 15,9 52 28 50 27 SW 1014,0 10
22.07.2019 10:00:00 16,9 15,7 50 27 54 29 SSW 1013,7 10
22.07.2019 09:00:00 16,5 15,6 52 28 54 29 SSW 1013,3 9
22.07.2019 08:00:00 15,9 15,6 50 27 47 25 S 1013,4 2,9
22.07.2019 07:00:00 15,9 15,5 41 22 40 21 S 1014,2 3,9
22.07.2019 06:00:00 16,5 15,5 39 21 43 23 SSW 1014,8 5
22.07.2019 05:00:00 16,7 15,4 39 21 36 19 S 1015,5 6
22.07.2019 04:00:00 16,6 15,2 37 20 36 19 S 1016,0 10
22.07.2019 03:00:00 16,6 15,2 35 19 36 19 S 1016,9 10
22.07.2019 02:00:00 16,6 15,2 35 19 36 19 S 1017,7 10
22.07.2019 01:00:00 16,7 14,8 35 19 32 18 S 1018,6 10
22.07.2019 00:00:00 16,5 14,5 34 18 32 18 S 1018,7 10
21.07.2019 23:00:00 16,3 14,3 29 16 29 16 S 1019,0 10
21.07.2019 22:00:00 16,2 14,6 28 15 29 16 S 1019,4 10
21.07.2019 21:00:00 16,1 14,7 22 12 25 14 S 1019,1 10
21.07.2019 20:00:00 16,5 14,2 26 14 25 14 SSW 1019,1 10
21.07.2019 19:00:00 17,0 14,0 26 14 25 14 SSW 1019,3 10
21.07.2019 18:00:00 16,6 13,8 21 11 22 12 SSW 1019,1 10
21.07.2019 17:00:00 16,1 14,2 18 10 22 12 SW 1019,0 10
21.07.2019 16:00:00 15,9 14,1 18 10 22 12 WSW 1018,8 10
21.07.2019 15:00:00 15,8 13,8 22 12 22 12 W 1018,7 10
21.07.2019 14:00:00 15,7 14,6 18 10 18 10 W 1018,2 10
21.07.2019 13:00:00 15,8 15,0 18 10 18 10 W 1017,6 10
21.07.2019 12:00:00 15,7 14,5 21 11 22 12 W 1016,8 10
21.07.2019 11:00:00 15,6 14,5 21 11 25 14 W 1016,0 10
21.07.2019 10:00:00 15,4 13,9 26 14 25 14 WNW 1014,8 10
21.07.2019 09:00:00 15,3 12,9 29 16 36 19 NW 1014,0 10
21.07.2019 08:00:00 15,4 13,0 37 20 40 21 NNW 1013,0 10
21.07.2019 07:00:00 15,3 13,7 34 18 40 21 NNW 1011,8 10
21.07.2019 06:00:00 15,1 14,7 42 23 40 21 NW 1010,5 10
21.07.2019 05:00:00 15,9 15,5 31 17 32 18 NW 1009,9 10
21.07.2019 04:00:00 15,8 15,6 31 17 36 19 WNW 1009,1 10
21.07.2019 03:00:00 15,7 15,7 37 20 36 19 WNW 1008,6 3,3
21.07.2019 02:00:00 15,9 15,7 29 16 29 16 WNW 1007,8 7
21.07.2019 01:00:00 16,1 15,6 26 14 29 16 W 1007,2 10
21.07.2019 00:00:00 16,1 15,4 29 16 29 16 WSW 1006,7 10
20.07.2019 23:00:00 16,5 15,5 29 16 29 16 S 1006,2 10
20.07.2019 22:00:00 16,8 15,8 29 16 29 16 S 1006,0 10
20.07.2019 21:00:00 16,5 16,1 31 17 32 18 S 1005,8 10
20.07.2019 20:00:00 16,4 16,2 31 17 32 18 S 1005,4 10
20.07.2019 19:00:00 16,4 16,1 34 18 32 18 S 1005,3 10
20.07.2019 18:00:00 16,3 16,0 34 18 32 18 S 1005,2 10
20.07.2019 17:00:00 16,2 15,9 34 18 29 16 S 1005,4 10
20.07.2019 16:00:00 16,3 16,0 29 16 32 18 S 1005,5 10
20.07.2019 15:00:00 16,3 15,9 31 17 32 18 S 1005,7 10
20.07.2019 14:00:00 16,1 15,6 31 17 32 18 S 1005,3 10
20.07.2019 13:00:00 16,0 15,7 34 18 32 18 S 1004,9 10
20.07.2019 12:00:00 16,0 15,9 34 18 36 19 S 1004,7 10
20.07.2019 11:00:00 16,1 16,0 39 21 40 21 S 1004,5 2,3
20.07.2019 10:00:00 16,2 16,1 35 19 36 19 S 1004,7 1,4
20.07.2019 09:00:00 16,3 16,3 29 16 36 19 S 1004,5 2,3
20.07.2019 08:00:00 16,2 16,1 29 16 32 18 S 1004,6 1,1
20.07.2019 07:00:00 15,9 15,9 35 19 32 18 S 1005,1 9
20.07.2019 06:00:00 15,9 15,9 31 17 36 19 S 1005,7 5
20.07.2019 05:00:00 16,0 15,9 37 20 36 19 S 1006,1 2,9
20.07.2019 04:00:00 15,9 15,8 41 22 40 21 S 1006,3 5
20.07.2019 03:00:00 15,8 15,8 39 21 36 19 SSE 1007,0 4,6
20.07.2019 02:00:00 15,9 15,3 39 21 40 21 SSE 1007,4 3,0
20.07.2019 01:00:00 16,2 14,7 41 22 40 21 SSE 1008,0 10
20.07.2019 00:00:00 16,4 14,7 39 21 40 21 SSE 1008,6 10
19.07.2019 23:00:00 16,3 14,5 39 21 36 19 SSE 1009,4 10
19.07.2019 22:00:00 16,3 14,8 35 19 32 18 SSE 1009,6 10
19.07.2019 21:00:00 16,2 15,0 29 16 29 16 SSE 1009,8 10
19.07.2019 20:00:00 16,3 15,9 29 16 29 16 SSE 1010,2 10
19.07.2019 19:00:00 16,2 15,1 28 15 25 14 SSE 1010,7 10
19.07.2019 18:00:00 16,2 14,3 28 15 29 16 SSE 1010,9 10
19.07.2019 17:00:00 16,2 14,2 26 14 25 14 SSE 1011,4 10
19.07.2019 16:00:00 16,1 14,1 22 12 22 12 SSE 1011,6 10
19.07.2019 15:00:00 16,0 14,5 22 12 22 12 S 1011,8 10
19.07.2019 14:00:00 15,8 14,3 16 9 18 10 S 1011,5 10
19.07.2019 13:00:00 15,7 14,7 15 8 14 8 SSW 1011,5 10
19.07.2019 12:00:00 15,6 14,5 16 9 25 14 SSW 1011,4 10
19.07.2019 11:00:00 15,5 14,6 15 8 14 8 SW 1011,2 10
19.07.2019 10:00:00 15,5 14,6 13 7 14 8 SW 1011,0 10
19.07.2019 09:00:00 15,5 14,0 13 7 14 8 WSW 1010,7 10
19.07.2019 08:00:00 15,5 14,0 15 8 14 8 SW 1010,5 10
19.07.2019 07:00:00 15,5 14,3 13 7 14 8 WSW 1010,2 10
19.07.2019 06:00:00 15,5 14,3 18 10 18 10 SW 1010,0 10
19.07.2019 05:00:00 15,5 14,4 18 10 22 12 SSW 1009,8 10
19.07.2019 04:00:00 15,6 14,0 22 12 22 12 SSW 1009,8 10
19.07.2019 03:00:00 15,5 13,9 22 12 22 12 SSW 1009,7 10
19.07.2019 02:00:00 15,3 14,2 22 12 22 12 S 1009,6 10
19.07.2019 01:00:00 15,2 14,0 21 11 18 10 S 1009,7 10
19.07.2019 00:00:00 15,3 13,8 16 9 18 10 SW 1009,6 10
18.07.2019 23:00:00 15,2 13,8 16 9 18 10 SW 1009,4 10
18.07.2019 22:00:00 15,2 13,5 18 10 18 10 WSW 1009,0 10
18.07.2019 21:00:00 15,1 13,6 15 8 14 8 SW 1008,5 10
18.07.2019 20:00:00 15,1 13,3 15 8 18 10 W 1008,2 10
18.07.2019 19:00:00 15,2 13,1 18 10 22 12 WNW 1008,1 10
18.07.2019 18:00:00 14,9 14,5 15 8 18 10 WSW 1007,8 10
18.07.2019 17:00:00 15,0 14,7 26 14 25 14 SSW 1007,3 8
18.07.2019 16:00:00 15,6 15,2 26 14 29 16 SSW 1007,1 9
18.07.2019 15:00:00 15,6 14,3 24 13 29 16 SSW 1006,9 10
18.07.2019 14:00:00 16,1 15,3 22 12 25 14 S 1006,9 10
18.07.2019 13:00:00 16,2 15,1 31 17 32 18 S 1006,8 10
18.07.2019 12:00:00 16,0 15,1 34 18 36 19 SSE 1007,0 10
18.07.2019 11:00:00 16,1 15,4 34 18 36 19 S 1006,8 10
18.07.2019 10:00:00 15,8 15,1 35 19 36 19 S 1007,2 10
18.07.2019 09:00:00 16,1 14,9 37 20 36 19 S 1007,3 10
18.07.2019 08:00:00 16,1 15,0 41 22 40 21 S 1007,4 10
18.07.2019 07:00:00 16,3 15,1 41 22 40 21 S 1007,8 10
18.07.2019 06:00:00 16,2 15,1 41 22 43 23 S 1007,9 10

tt = Température de l'air
td = dewpoint
ff = Vitesse du vent
fx = gusts
dd = Direction du vent
ppp = reduced air pressure
vv = visibility

stations d'obs. à proximité